SBI601 UWGG-UUWW

Flight info

Callsign SBI601
Flight time 0h 44m
Altitude 36000
Route LARNO2U LARNO T291 URIDU L158 DIMGI DIMGI3B
Aircraft A320/M-SDE3FGHIRWY/LB1

Departure

Time 2026-04-26 20:58
Airport Nizhny Novgorod / Strigino International Airport (UWGG)

Arrival

Time 2026-04-26 21:42
Airport Vnukovo International Airport (UUWW)
Time Latitude Longitude Altitude Speed Heading
2026-04-26 20:45 56.21981 43.78865 266 ft 0 kts 101°
2026-04-26 20:52 56.21983 43.78841 266 ft 2 kts 96°
2026-04-26 20:52 56.21985 43.78811 266 ft 2 kts 94°
2026-04-26 20:52 56.21985 43.78782 266 ft 2 kts 84°
2026-04-26 20:52 56.21983 43.78753 266 ft 2 kts 69°
2026-04-26 20:53 56.21975 43.78727 266 ft 2 kts 36°
2026-04-26 20:53 56.21962 43.78714 266 ft 1 kts
2026-04-26 20:53 56.21959 43.78713 266 ft 0 kts
2026-04-26 20:54 56.21980 43.78718 266 ft 18 kts
2026-04-26 20:55 56.22209 43.78761 266 ft 36 kts
2026-04-26 20:55 56.22455 43.78844 266 ft 36 kts 12°
2026-04-26 20:55 56.22700 43.78938 266 ft 36 kts 12°
2026-04-26 20:55 56.22949 43.79032 266 ft 37 kts 12°
2026-04-26 20:56 56.23199 43.79122 266 ft 37 kts 11°
2026-04-26 20:56 56.23451 43.79211 266 ft 37 kts 11°
2026-04-26 20:56 56.23706 43.79247 266 ft 37 kts
2026-04-26 20:56 56.23950 43.79265 266 ft 32 kts
2026-04-26 20:57 56.24112 43.79089 267 ft 27 kts 284°
2026-04-26 20:57 56.23991 43.78957 267 ft 23 kts 190°
2026-04-26 20:57 56.23705 43.78851 265 ft 74 kts 191°
2026-04-26 20:57 56.23275 43.78697 267 ft 115 kts 192°
2026-04-26 20:58 56.21963 43.78195 562 ft 155 kts 191°
2026-04-26 20:58 56.21267 43.77923 1028 ft 155 kts 188°
2026-04-26 20:58 56.20219 43.77462 1672 ft 163 kts 193°
2026-04-26 20:58 56.19081 43.76575 1922 ft 192 kts 200°
2026-04-26 20:59 56.17806 43.75463 2384 ft 212 kts 201°
2026-04-26 20:59 56.16454 43.74261 3197 ft 220 kts 204°
2026-04-26 20:59 56.15064 43.73032 4074 ft 226 kts 203°
2026-04-26 20:59 56.13632 43.71784 4942 ft 231 kts 203°
2026-04-26 21:00 56.12167 43.70518 5870 ft 235 kts 202°
2026-04-26 21:00 56.10683 43.69244 6730 ft 238 kts 203°
2026-04-26 21:00 56.09317 43.67472 7557 ft 252 kts 225°
2026-04-26 21:00 56.08538 43.64565 8361 ft 270 kts 250°
2026-04-26 21:01 56.08164 43.61231 9230 ft 276 kts 251°
2026-04-26 21:01 56.07802 43.57834 9777 ft 290 kts 252°
2026-04-26 21:01 56.07399 43.54141 10027 ft 314 kts 252°
2026-04-26 21:01 56.06960 43.50166 10251 ft 336 kts 252°
2026-04-26 21:02 56.06501 43.45971 10779 ft 346 kts 253°
2026-04-26 21:02 56.06036 43.41706 11468 ft 352 kts 253°
2026-04-26 21:02 56.05565 43.37378 12178 ft 356 kts 253°
2026-04-26 21:02 56.05084 43.33002 12877 ft 360 kts 253°
2026-04-26 21:03 56.04595 43.28576 13541 ft 364 kts 253°
2026-04-26 21:03 56.04099 43.24116 14185 ft 367 kts 253°
2026-04-26 21:03 56.03596 43.19625 14845 ft 369 kts 253°
2026-04-26 21:03 56.03084 43.15120 15524 ft 371 kts 253°
2026-04-26 21:04 56.02567 43.10583 16197 ft 372 kts 253°
2026-04-26 21:04 56.02051 43.06041 16870 ft 374 kts 253°
2026-04-26 21:04 56.01528 43.01470 17548 ft 376 kts 253°
2026-04-26 21:04 56.01006 42.96922 18159 ft 379 kts 252°
2026-04-26 21:05 56.00476 42.92305 18751 ft 380 kts 253°
2026-04-26 21:05 55.99940 42.87655 19338 ft 382 kts 253°
2026-04-26 21:05 55.99412 42.83077 19886 ft 384 kts 253°
2026-04-26 21:05 55.98870 42.78406 20429 ft 385 kts 253°
2026-04-26 21:06 55.98330 42.73782 20963 ft 387 kts 253°
2026-04-26 21:06 55.97776 42.69061 21488 ft 389 kts 253°
2026-04-26 21:06 55.97217 42.64315 21993 ft 391 kts 253°
2026-04-26 21:06 55.96655 42.59550 22494 ft 393 kts 253°
2026-04-26 21:07 55.96089 42.54767 22966 ft 395 kts 253°
2026-04-26 21:07 55.95517 42.49969 23356 ft 396 kts 253°
2026-04-26 21:07 55.94941 42.45150 23736 ft 398 kts 253°
2026-04-26 21:07 55.94359 42.40303 24093 ft 400 kts 253°
2026-04-26 21:08 55.93777 42.35450 24465 ft 401 kts 253°
2026-04-26 21:08 55.93190 42.30558 24841 ft 403 kts 252°
2026-04-26 21:08 55.92600 42.25659 25193 ft 405 kts 252°
2026-04-26 21:08 55.92003 42.20736 25536 ft 406 kts 252°
2026-04-26 21:09 55.91402 42.15805 25873 ft 408 kts 252°
2026-04-26 21:09 55.90796 42.10851 26192 ft 410 kts 252°
2026-04-26 21:09 55.90184 42.05887 26513 ft 411 kts 252°
2026-04-26 21:09 55.89575 42.00964 26853 ft 413 kts 252°
2026-04-26 21:10 55.88946 41.95897 27143 ft 415 kts 252°
2026-04-26 21:10 55.88330 41.90939 27415 ft 416 kts 252°
2026-04-26 21:10 55.87702 41.85891 27695 ft 418 kts 252°
2026-04-26 21:10 55.87073 41.80816 27961 ft 419 kts 252°
2026-04-26 21:11 55.86694 41.75632 28250 ft 426 kts 261°
2026-04-26 21:11 55.86553 41.70355 28620 ft 425 kts 261°
2026-04-26 21:11 55.86407 41.65102 28989 ft 424 kts 261°
2026-04-26 21:11 55.86251 41.59851 29338 ft 424 kts 260°
2026-04-26 21:12 55.86088 41.54610 29621 ft 423 kts 260°
2026-04-26 21:12 55.85923 41.49379 29898 ft 423 kts 260°
2026-04-26 21:12 55.85757 41.44207 30166 ft 423 kts 260°
2026-04-26 21:12 55.85591 41.38970 30439 ft 424 kts 261°
2026-04-26 21:13 55.85423 41.33729 30708 ft 424 kts 261°
2026-04-26 21:13 55.85253 41.28490 30973 ft 424 kts 261°
2026-04-26 21:13 55.85080 41.23246 31253 ft 424 kts 261°
2026-04-26 21:13 55.84905 41.18010 31568 ft 424 kts 261°
2026-04-26 21:14 55.84726 41.12764 31784 ft 426 kts 261°
2026-04-26 21:14 55.84546 41.07496 32009 ft 427 kts 261°
2026-04-26 21:14 55.84364 41.02198 32262 ft 428 kts 261°
2026-04-26 21:14 55.84183 40.96904 32517 ft 429 kts 262°
2026-04-26 21:15 55.83999 40.91607 32783 ft 429 kts 262°
2026-04-26 21:15 55.83810 40.86303 33053 ft 429 kts 262°
2026-04-26 21:15 55.83617 40.80995 33332 ft 429 kts 262°
2026-04-26 21:15 55.83420 40.75686 33567 ft 430 kts 262°
2026-04-26 21:16 55.83221 40.70393 33768 ft 430 kts 262°
2026-04-26 21:16 55.83018 40.65075 33995 ft 430 kts 262°
2026-04-26 21:16 55.82816 40.59773 34214 ft 430 kts 262°
2026-04-26 21:16 55.82607 40.54440 34421 ft 430 kts 262°
2026-04-26 21:17 55.82394 40.49119 34627 ft 431 kts 262°
2026-04-26 21:17 55.82176 40.43803 34809 ft 431 kts 262°
2026-04-26 21:17 55.81956 40.38478 34998 ft 432 kts 262°
2026-04-26 21:17 55.81737 40.33206 35175 ft 433 kts 262°
2026-04-26 21:18 55.81506 40.27776 35212 ft 436 kts 262°
2026-04-26 21:18 55.81276 40.22434 34353 ft 443 kts 262°
2026-04-26 21:18 55.81035 40.16931 33325 ft 449 kts 262°
2026-04-26 21:18 55.80793 40.11380 32231 ft 451 kts 261°
2026-04-26 21:19 55.80554 40.05825 31224 ft 449 kts 260°
2026-04-26 21:19 55.80316 40.00298 30228 ft 447 kts 259°
2026-04-26 21:19 55.80085 39.94877 29825 ft 425 kts 258°
2026-04-26 21:19 55.79873 39.89784 29389 ft 404 kts 257°
2026-04-26 21:20 55.79659 39.84887 28531 ft 392 kts 257°
2026-04-26 21:20 55.79435 39.80106 27517 ft 385 kts 256°
2026-04-26 21:20 55.79158 39.75383 26876 ft 381 kts 255°
2026-04-26 21:20 55.78846 39.70738 26606 ft 377 kts 254°
2026-04-26 21:21 55.78515 39.66112 26339 ft 376 kts 254°
2026-04-26 21:21 55.78182 39.61519 26207 ft 374 kts 254°
2026-04-26 21:21 55.77857 39.56978 26282 ft 376 kts 254°
2026-04-26 21:21 55.77530 39.52339 26235 ft 377 kts 254°
2026-04-26 21:22 55.77209 39.47717 26241 ft 378 kts 254°
2026-04-26 21:22 55.76892 39.43073 26237 ft 378 kts 254°
2026-04-26 21:22 55.76577 39.38433 26235 ft 378 kts 254°
2026-04-26 21:23 55.75941 39.29168 26091 ft 378 kts 253°
2026-04-26 21:23 55.75616 39.24538 25954 ft 378 kts 253°
2026-04-26 21:23 55.75287 39.19915 25848 ft 377 kts 253°
2026-04-26 21:23 55.74962 39.15353 25744 ft 377 kts 253°
2026-04-26 21:24 55.74631 39.10734 25652 ft 377 kts 253°
2026-04-26 21:24 55.74298 39.06113 25561 ft 377 kts 253°
2026-04-26 21:24 55.73947 39.01316 25454 ft 376 kts 253°
2026-04-26 21:24 55.73554 38.96684 25276 ft 369 kts 246°
2026-04-26 21:25 55.72674 38.92524 25019 ft 357 kts 237°
2026-04-26 21:25 55.71647 38.88525 24767 ft 356 kts 237°
2026-04-26 21:25 55.70612 38.84545 24527 ft 355 kts 236°
2026-04-26 21:25 55.69573 38.80586 24273 ft 354 kts 236°
2026-04-26 21:26 55.68533 38.76640 24021 ft 353 kts 236°
2026-04-26 21:26 55.67494 38.72705 23793 ft 352 kts 236°
2026-04-26 21:26 55.66459 38.68782 23548 ft 351 kts 236°
2026-04-26 21:26 55.65411 38.64816 23354 ft 349 kts 235°
2026-04-26 21:27 55.64375 38.60883 23179 ft 347 kts 236°
2026-04-26 21:27 55.63354 38.57014 22943 ft 347 kts 236°
2026-04-26 21:27 55.62333 38.53149 22672 ft 346 kts 236°
2026-04-26 21:27 55.61312 38.49303 22388 ft 345 kts 236°
2026-04-26 21:28 55.60304 38.45513 22108 ft 345 kts 236°
2026-04-26 21:28 55.59267 38.41626 21835 ft 345 kts 236°
2026-04-26 21:28 55.58246 38.37798 21555 ft 344 kts 236°
2026-04-26 21:28 55.57225 38.33975 21235 ft 343 kts 236°
2026-04-26 21:29 55.56199 38.30145 20540 ft 347 kts 237°
2026-04-26 21:29 55.55512 38.27590 20084 ft 349 kts 237°
2026-04-26 21:29 55.54461 38.23691 19362 ft 354 kts 237°
2026-04-26 21:29 55.53389 38.19722 18492 ft 363 kts 238°
2026-04-26 21:30 55.52290 38.15648 17624 ft 372 kts 239°
2026-04-26 21:30 55.51146 38.11413 16589 ft 382 kts 240°
2026-04-26 21:30 55.49995 38.07140 15594 ft 390 kts 240°
2026-04-26 21:30 55.48839 38.02854 14639 ft 391 kts 241°
2026-04-26 21:31 55.47676 37.98523 13703 ft 380 kts 242°
2026-04-26 21:31 55.46559 37.94377 12762 ft 370 kts 242°
2026-04-26 21:31 55.45466 37.90335 11764 ft 361 kts 242°
2026-04-26 21:31 55.44397 37.86401 10798 ft 352 kts 241°
2026-04-26 21:32 55.43346 37.82548 9862 ft 345 kts 242°
2026-04-26 21:32 55.42309 37.78775 8919 ft 340 kts 242°
2026-04-26 21:32 55.41284 37.75064 7920 ft 335 kts 244°
2026-04-26 21:32 55.40277 37.71418 7330 ft 321 kts 246°
2026-04-26 21:33 55.39509 37.67907 6992 ft 298 kts 261°
2026-04-26 21:33 55.39399 37.64386 6512 ft 281 kts 281°
2026-04-26 21:33 55.39906 37.61172 5948 ft 267 kts 301°
2026-04-26 21:33 55.40897 37.58525 5343 ft 253 kts 318°
2026-04-26 21:34 55.42227 37.56579 4774 ft 239 kts 333°
2026-04-26 21:34 55.43700 37.55419 4192 ft 228 kts 343°
2026-04-26 21:34 55.45210 37.54872 3545 ft 222 kts 348°
2026-04-26 21:34 55.46719 37.54386 2881 ft 219 kts 347°
2026-04-26 21:35 55.48151 37.53922 2691 ft 198 kts 346°
2026-04-26 21:35 55.49451 37.53501 2622 ft 182 kts 346°
2026-04-26 21:35 55.50642 37.53112 2636 ft 166 kts 346°
2026-04-26 21:35 55.51712 37.52764 2680 ft 146 kts 346°
2026-04-26 21:36 55.52678 37.52446 2665 ft 137 kts 345°
2026-04-26 21:36 55.53612 37.52135 2665 ft 137 kts 345°
2026-04-26 21:36 55.54535 37.51831 2675 ft 133 kts 345°
2026-04-26 21:36 55.55449 37.51529 2660 ft 136 kts 345°
2026-04-26 21:37 55.56451 37.51193 2677 ft 153 kts 345°
2026-04-26 21:37 55.57512 37.50846 2672 ft 156 kts 345°
2026-04-26 21:37 55.58600 37.50490 2673 ft 157 kts 346°
2026-04-26 21:37 55.59650 37.49987 2644 ft 157 kts 336°
2026-04-26 21:38 55.60657 37.49278 2532 ft 153 kts 337°
2026-04-26 21:38 55.61595 37.48621 2395 ft 140 kts 336°
2026-04-26 21:38 55.62446 37.47893 2280 ft 134 kts 323°
2026-04-26 21:38 55.63039 37.46636 2221 ft 135 kts 301°
2026-04-26 21:39 55.63241 37.45025 2210 ft 134 kts 279°
2026-04-26 21:39 55.63018 37.43424 2200 ft 136 kts 262°
2026-04-26 21:39 55.62676 37.41895 2196 ft 132 kts 262°
2026-04-26 21:39 55.62341 37.40399 2101 ft 129 kts 262°
2026-04-26 21:40 55.62013 37.38923 1964 ft 129 kts 261°
2026-04-26 21:40 55.61686 37.37452 1801 ft 128 kts 262°
2026-04-26 21:40 55.61362 37.36001 1599 ft 128 kts 258°
2026-04-26 21:40 55.61031 37.34521 1410 ft 130 kts 256°
2026-04-26 21:41 55.60694 37.33011 1222 ft 133 kts 253°
2026-04-26 21:41 55.60354 37.31492 1029 ft 132 kts 253°
2026-04-26 21:41 55.60001 37.29946 876 ft 132 kts 252°
2026-04-26 21:41 55.59660 37.28411 687 ft 132 kts 252°
2026-04-26 21:42 55.59405 37.27166 666 ft 78 kts 248°
2026-04-26 21:42 55.59237 37.26442 669 ft 57 kts 247°
2026-04-26 21:42 55.59100 37.25853 667 ft 48 kts 249°
2026-04-26 21:42 55.59021 37.25330 661 ft 42 kts 270°
2026-04-26 21:43 55.59074 37.25039 659 ft 0 kts 347°
2026-04-26 21:44 55.59126 37.25018 659 ft 27 kts 347°
2026-04-26 21:44 55.59267 37.25094 662 ft 9 kts 62°
2026-04-26 21:44 55.59270 37.25122 663 ft 0 kts 88°